Snowfall_Accumulation
0.0 0.0 0.0 0.0 0.0 0.0 0.6 0.0 0.4 0.0 0.0 0.0 0.0 0.0 0.0 0.0 0.0 0.0 0.0 0.0 0.0 0.0 0.0 0.0 0.0 0.0 0.0 0.0 0.0 0.0 0.0 0.0 0.0 0.0 0.0 0.0 0.0 0.0 0.0 0.0 0.0 0.0 0.0 0.0
0.0 0.0 0.0 0.0 0.0 0.0 0.0 0.0 0.0 0.0 0.0 0.0 0.0 0.0 0.0 0.0 0.0 0.0 0.0 0.0 0.0 0.0 0.0 0.0 0.0 0.0 0.0 0.0 0.0 0.0 0.0 0.0 0.0 0.0 0.0 0.0 0.0 0.0 0.0 0.0 0.0 0.0 0.0 0.0
0.0 0.0 0.0 0.2 0.0 0.0 0.0 0.0 0.0 0.0 0.0 0.0 0.0 0.0 0.0 0.0 0.0 0.0 0.0 0.0 0.0 0.0 0.0 0.0 0.0 0.0 0.0 0.0 0.0 0.0 0.0 0.0 0.0 0.0 0.0 0.0 0.0 0.0 0.0 0.0 0.0 0.0 0.0 0.0
0.1 0.0 0.1 0.0 0.0 0.0 0.0 0.0 0.0 0.0 0.0 0.0 0.0 0.0 0.0 0.0 0.0 0.0 0.0 0.0 0.0 0.0 0.0 0.0 0.0 0.0 0.0 0.0 0.0 0.0 0.0 0.0 0.0 0.0 0.0 0.0 0.0 0.0 0.0 0.0 0.0 0.0 0.0 0.0
0.2 0.0 0.0 0.0 0.0 0.0 0.0 0.0 0.0 0.0 0.0 0.0 0.0 0.0 0.0 0.0 0.0 0.0 0.0 0.0 0.0 0.0 0.0 0.0 0.0 0.0 0.0 0.0 0.0 0.0 0.0 0.0 0.0 0.0 0.0 0.0 0.0 0.0 0.0 0.0 0.0 0.0 0.0 0.0
0.2 0.2 0.3 0.0 0.0 0.0 0.0 0.0 0.0 0.0 0.0 0.0 0.0 0.0 0.0 0.0 0.0 0.0 0.0 0.0 0.0 0.0 0.0 0.0 0.0 0.0 0.0 0.0 0.0 0.0 0.0 0.0 0.0 0.0 0.0 0.0 0.0 0.0 0.0 0.0 0.0 0.0 0.0 0.0
0.0 0.3 0.0 0.0 0.0 0.0 0.1 0.0 0.0 0.0 0.0 0.0 0.0 0.0 0.0 0.0 0.0 0.0 0.0 0.0 0.0 0.0 0.0 0.0 0.0 0.0 0.0 0.0 0.0 0.0 0.0 0.0 0.0 0.0 0.0 0.0 0.0 0.0 0.0 0.0 0.0 0.0 0.0 0.0
0.1 0.2 2.8 0.0 0.0 0.0 0.0 0.0 0.0 0.0 0.0 0.0 0.0 0.0 0.0 0.0 0.0 0.0 0.0 0.0 0.0 0.0 0.0 0.0 0.0 0.0 0.0 0.0 0.0 0.0 0.0 0.0 0.0 0.0 0.0 0.0 0.0 0.0 0.0 0.0 0.0 0.0 0.0 0.0
0.0 0.0 0.0 0.0 0.0 0.0 0.0 0.0 0.0 0.0 0.0 0.0 0.0 0.0 0.0 0.0 0.0 0.0 0.0 0.0 0.0 0.0 0.0 0.0 0.0 0.0 0.0 0.0 0.0 0.0 0.0 0.0 0.0 0.0 0.0 0.0 0.0 0.0 0.0 0.0 0.0 0.0 0.0 0.0
0.0 0.0 0.0 0.0 0.0 0.0 0.0 0.0 0.0 0.0 0.0 0.0 0.0 0.0 0.0 0.0 0.0 0.0 0.0 0.0 0.0 0.0 0.0 0.0 0.0 0.0 0.0 0.0 0.0 0.0 0.0 0.0 0.0 0.0 0.0 0.0 0.0 0.0 0.0 0.0 0.0 0.0 0.0 0.0
0.8 0.2 0.0 0.0 0.0 0.0 0.0 0.0 0.0 0.0 0.0 0.0 0.0 0.0 0.0 0.0 0.0 0.0 0.0 0.0 0.0 0.0 0.0 0.0 0.0 0.0 0.0 0.0 0.0 0.0 0.0 0.0 0.0 0.0 0.0 0.0 0.0 0.0 0.0 0.0 0.0 0.0 0.0 0.0
0.6 0.0 0.0 0.0 0.0 0.0 0.0 0.0 0.0 0.0 0.0 0.0 0.0 0.0 0.0 0.0 0.0 0.0 0.0 0.0 0.0 0.0 0.0 0.0 0.0 0.0 0.0 0.0 0.0 0.0 0.0 0.0 0.0 0.0 0.0 0.0 0.0 0.0 nan nan nan nan nan 0.0
0.0 0.0 0.0 0.1 0.2 0.0 0.0 0.0 0.0 0.0 0.0 0.0 0.0 0.0 0.0 0.0 0.0 nan 0.0 0.0 0.0 0.0 0.0 0.0 0.0 0.0 0.0 0.0 0.0 0.0 0.0 0.0 0.0 0.0 0.0 0.0 0.0 0.0 0.0 0.0 nan nan nan nan
0.2 0.1 0.9 0.7 1.0 0.0 0.0 0.0 0.0 0.0 0.0 0.0 0.0 0.0 0.0 0.0 0.0 0.0 0.0 0.0 0.0 0.0 0.0 0.0 0.0 0.0 0.0 0.0 0.0 0.0 0.0 nan 0.0 0.0 0.0 0.0 0.0 0.0 0.0 0.0 0.0 0.0 nan nan
0.7 0.4 0.6 0.5 0.4 0.4 0.2 0.1 0.1 0.1 0.1 0.0 0.0 0.0 0.0 0.0 0.0 0.0 0.0 0.0 0.0 0.0 0.0 0.0 0.0 0.0 0.0 0.0 0.0 0.0 0.0 0.0 0.0 0.0 0.0 0.0 0.0 0.0 0.0 0.0 0.0 0.0 0.0 0.0
1.2 0.7 0.3 0.2 0.2 0.2 0.1 0.1 0.1 0.2 0.1 0.1 0.0 0.0 0.0 0.0 0.0 0.0 0.0 0.0 0.0 0.0 0.0 0.0 0.0 0.0 0.0 0.0 0.0 0.0 0.0 nan 0.0 0.1 0.1 0.1 0.0 0.0 0.1 0.1 0.1 0.1 0.0 0.0
0.4 0.9 0.4 0.4 0.3 0.1 0.2 0.1 0.1 0.0 0.0 0.0 0.0 0.0 0.0 0.0 0.0 0.0 0.2 0.2 0.2 0.2 0.2 0.1 0.1 0.0 0.0 0.0 0.0 0.0 0.0 0.1 nan 0.1 0.2 0.2 0.2 0.2 0.1 0.2 0.3 0.2 0.1 0.1
0.4 0.4 0.2 0.1 0.0 0.0 0.0 0.0 0.0 0.0 0.0 0.0 0.0 0.0 0.2 0.2 0.3 0.2 0.2 0.2 0.3 0.4 0.2 0.1 0.0 0.0 0.0 0.0 0.0 0.0 0.1 0.2 0.3 0.3 0.3 0.7 0.5 0.6 0.8 0.8 0.7 0.7 0.5 0.7
0.0 0.1 0.0 0.0 0.0 0.0 0.0 0.0 0.0 0.0 0.0 0.0 0.0 0.0 0.0 0.0 0.1 0.1 0.3 0.4 0.3 0.2 0.1 0.0 nan 0.0 0.0 0.0 0.1 0.1 0.1 0.2 0.3 0.3 0.4 nan 0.5 0.4 0.5 0.5 0.4 0.3 0.3 0.3
0.1 0.0 0.0 0.0 0.0 0.0 0.0 0.0 0.0 0.0 0.0 0.0 0.0 0.0 0.1 0.0 0.0 0.1 0.0 0.0 0.0 0.0 0.0 0.0 0.0 0.0 0.0 0.0 nan 0.0 0.0 0.0 0.0 0.0 0.0 0.0 0.1 0.1 0.2 nan 0.3 0.3 0.2 0.1
0.0 0.0 0.0 0.0 0.0 0.0 0.0 0.0 0.0 0.0 0.0 0.0 0.0 0.0 0.0 0.0 0.0 0.1 0.2 0.3 0.0 0.0 0.0 nan 0.1 0.1 0.0 0.0 0.0 0.0 0.0 0.0 0.0 0.0 0.0 0.0 0.0 0.1 0.2 0.2 0.4 0.4 0.4 0.4
0.1 0.1 0.1 0.0 0.0 0.0 0.0 0.0 0.0 0.0 0.0 0.0 0.1 0.1 0.1 0.1 0.0 0.1 0.0 0.1 0.1 nan 0.3 0.3 0.2 nan 0.1 nan 0.1 0.0 0.0 0.0 0.0 0.1 0.2 0.1 0.2 0.5 0.8 0.8 1.2 0.8 1.2 1.4
0.6 0.2 0.1 0.1 0.2 0.1 0.1 0.1 0.1 0.1 0.1 0.1 0.1 0.0 0.1 0.0 0.1 0.1 0.0 0.0 0.2 nan 0.2 0.2 nan nan nan 0.2 0.2 0.2 0.3 0.3 0.3 0.2 0.4 0.7 0.9 1.3 1.5 1.7 1.6 1.6 1.9 1.7
0.1 0.1 0.1 0.0 0.0 0.1 0.3 0.1 0.2 0.1 0.1 0.1 0.2 0.1 0.2 0.4 0.3 0.2 0.1 nan nan 0.1 0.1 0.2 nan nan nan 0.2 0.3 0.3 0.3 0.4 0.6 0.8 0.7 nan 1.5 1.6 1.7 1.7 2.6 1.5 1.9 2.0
0.1 0.2 0.2 0.3 0.2 0.1 0.1 0.1 0.1 0.2 0.1 0.2 0.1 0.1 0.1 0.3 0.3 0.2 0.4 0.3 nan 0.3 0.3 nan nan nan 0.2 0.2 0.4 0.5 0.5 0.9 1.8 1.2 1.1 2.0 2.3 2.6 2.1 2.8 3.1 3.1 4.1 3.5
0.0 0.0 0.0 0.0 0.0 0.0 0.0 0.0 0.0 0.0 0.0 0.0 0.0 0.0 0.1 0.1 0.1 0.2 0.2 0.3 0.3 nan 0.4 0.4 0.4 0.4 0.4 0.5 0.5 0.5 0.6 0.8 0.9 0.9 1.6 2.3 2.8 3.7 4.8 4.3 4.2 4.0 3.6 4.4
0.2 nan 0.2 0.0 0.0 0.0 0.0 0.0 0.0 0.0 0.0 0.0 0.0 0.0 0.0 0.0 0.1 0.1 nan 0.0 0.1 0.2 0.3 0.3 0.4 nan 0.7 0.6 0.8 0.9 1.2 1.2 nan 3.1 3.3 5.3 5.9 6.6 5.3 5.2 6.2 5.3 5.6 5.0
Water_Equivalent
0.00 0.00 0.00 0.00 0.00 0.00 0.20 0.00 0.10 0.00 0.00 0.00 0.00 0.00 0.00 0.00 0.00 0.00 0.00 0.00 0.00 0.00 0.00 0.00 0.00 0.00 0.00 0.00 0.00 0.00 0.00 0.00 0.00 0.00 0.00 0.00 0.00 0.00 0.00 0.00 0.00 0.00 0.00 0.00
0.01 0.00 0.00 0.00 0.00 0.00 0.00 0.00 0.00 0.00 0.00 0.00 0.00 0.00 0.00 0.00 0.00 0.00 0.00 0.00 0.00 0.00 0.00 0.00 0.00 0.00 0.00 0.00 0.00 0.00 0.00 0.00 0.00 0.00 0.00 0.00 0.00 0.00 0.00 0.00 0.00 0.00 0.00 0.00
0.02 0.00 0.00 0.06 0.00 0.00 0.00 0.00 0.00 0.02 0.00 0.00 0.00 0.00 0.00 0.00 0.00 0.00 0.00 0.00 0.00 0.00 0.00 0.00 0.00 0.00 0.00 0.00 0.00 0.00 0.00 0.00 0.00 0.00 0.00 0.00 0.00 0.00 0.00 0.00 0.00 0.00 0.00 0.00
0.05 0.00 0.03 0.00 0.00 0.00 0.00 0.00 0.00 0.00 0.00 0.00 0.00 0.00 0.00 0.00 0.00 0.00 0.00 0.00 0.00 0.00 0.00 0.00 0.00 0.00 0.00 0.00 0.00 0.00 0.00 0.00 0.00 0.00 0.00 0.00 0.00 0.00 0.00 0.00 0.00 0.00 0.00 0.00
0.06 0.00 0.00 0.00 0.00 0.00 0.00 0.01 0.00 0.00 0.00 0.00 0.00 0.00 0.00 0.00 0.00 0.00 0.00 0.00 0.00 0.00 0.00 0.00 0.00 0.00 0.00 0.00 0.00 0.00 0.00 0.00 0.00 0.00 0.00 0.00 0.00 0.00 0.00 0.00 0.00 0.00 0.00 0.00
0.07 0.05 0.08 0.00 0.00 0.00 0.00 0.01 0.00 0.00 0.00 0.00 0.00 0.00 0.00 0.00 0.00 0.00 0.00 0.00 0.00 0.00 0.00 0.00 0.00 0.00 0.00 0.00 0.00 0.00 0.00 0.00 0.00 0.00 0.00 0.00 0.00 0.00 0.00 0.00 0.00 0.00 0.00 0.00
0.01 0.07 0.01 0.00 0.00 0.00 0.01 0.00 0.00 0.00 0.00 0.00 0.00 0.00 0.00 0.00 0.00 0.00 0.00 0.00 0.00 0.00 0.00 0.00 0.00 0.00 0.00 0.00 0.00 0.00 0.00 0.00 0.00 0.00 0.00 0.00 0.00 0.00 0.00 0.00 0.00 0.00 0.00 0.00
0.04 0.05 0.47 0.00 0.00 0.01 0.00 0.00 0.00 0.00 0.00 0.00 0.00 0.00 0.00 0.00 0.00 0.00 0.00 0.00 0.00 0.00 0.00 0.00 0.00 0.00 0.00 0.00 0.00 0.00 0.00 0.00 0.00 0.00 0.00 0.00 0.00 0.00 0.00 0.00 0.00 0.00 0.00 0.00
0.00 0.00 0.00 0.00 0.00 0.00 0.00 0.00 0.00 0.00 0.00 0.00 0.00 0.00 0.00 0.00 0.00 0.00 0.00 0.00 0.00 0.00 0.00 0.00 0.00 0.00 0.00 0.00 0.00 0.00 0.00 0.00 0.00 0.00 0.00 0.00 0.00 0.00 0.00 0.00 0.00 0.00 0.00 0.00
0.01 0.00 0.00 0.00 0.00 0.00 0.00 0.00 0.00 0.00 0.00 0.00 0.00 0.00 0.00 0.00 0.00 0.00 0.00 0.00 0.00 0.00 0.00 0.00 0.00 0.00 0.00 0.00 0.00 0.00 0.00 0.00 0.00 0.00 0.00 0.00 0.00 0.00 0.00 0.00 0.00 0.00 0.00 0.00
0.13 0.04 0.00 0.00 0.00 0.00 0.00 0.00 0.00 0.00 0.00 0.00 0.00 0.00 0.00 0.00 0.00 0.00 0.00 0.00 0.00 0.00 0.00 0.00 0.00 0.00 0.00 0.00 0.00 0.00 0.00 0.00 0.00 0.00 0.00 0.00 0.00 0.00 0.00 0.00 0.00 0.00 0.00 0.00
0.10 0.00 0.00 0.01 0.00 0.00 0.00 0.00 0.00 0.00 0.00 0.00 0.00 0.00 0.00 0.00 0.00 0.00 0.00 0.00 0.00 0.00 0.00 0.00 0.00 0.00 0.00 0.00 0.00 0.00 0.00 0.00 0.00 0.00 0.00 0.00 0.00 0.00 nan nan nan nan nan 0.00
0.01 0.00 0.00 0.01 0.03 0.00 0.00 0.00 0.00 0.00 0.00 0.00 0.00 0.00 0.00 0.00 0.00 nan 0.00 0.00 0.00 0.00 0.00 0.00 0.00 0.00 0.00 0.00 0.00 0.00 0.00 0.00 0.00 0.00 0.00 0.00 0.00 0.00 0.00 0.00 nan nan nan nan
0.04 0.01 0.16 0.12 0.18 0.00 0.00 0.00 0.00 0.00 0.00 0.00 0.00 0.00 0.00 0.00 0.00 0.00 0.00 0.00 0.00 0.00 0.00 0.00 0.00 0.00 0.00 0.00 0.00 0.00 0.00 nan 0.00 0.00 0.00 0.00 0.00 0.00 0.00 0.00 0.00 0.00 nan nan
0.11 0.06 0.10 0.08 0.06 0.05 0.03 0.02 0.01 0.01 0.01 0.01 0.00 0.00 0.00 0.00 0.00 0.00 0.00 0.00 0.00 0.00 0.00 0.00 0.00 0.00 0.00 0.00 0.00 0.00 0.00 0.00 0.00 0.00 0.00 0.00 0.00 0.00 0.00 0.00 0.00 0.00 0.01 0.00
0.20 0.10 0.04 0.03 0.03 0.03 0.02 0.02 0.01 0.02 0.01 0.01 0.00 0.00 0.00 0.00 0.00 0.00 0.00 0.00 0.00 0.01 0.01 0.01 0.00 0.00 0.00 0.00 0.00 0.00 0.00 nan 0.01 0.01 0.01 0.01 0.00 0.01 0.02 0.03 0.03 0.01 0.00 0.00
0.06 0.11 0.06 0.06 0.04 0.02 0.03 0.02 0.01 0.00 0.00 0.00 0.00 0.00 0.00 0.00 0.00 0.01 0.03 0.04 0.04 0.04 0.03 0.03 0.01 0.00 0.00 0.00 0.00 0.00 0.01 0.01 nan 0.02 0.03 0.05 0.04 0.05 0.04 0.06 0.07 0.06 0.02 0.02
0.06 0.06 0.03 0.02 0.01 0.00 0.00 0.00 0.00 0.00 0.00 0.00 0.00 0.00 0.03 0.04 0.05 0.04 0.04 0.04 0.05 0.07 0.05 0.03 0.01 0.00 0.00 0.00 0.01 0.01 0.02 0.04 0.05 0.06 0.07 0.13 0.11 0.13 0.16 0.15 0.13 0.13 0.09 0.13
0.01 0.02 0.00 0.00 0.00 0.00 0.00 0.00 0.00 0.00 0.00 0.00 0.00 0.01 0.00 0.00 0.01 0.02 0.06 0.08 0.06 0.04 0.02 0.01 nan 0.00 0.00 0.00 0.02 0.01 0.02 0.03 0.04 0.05 0.07 nan 0.12 0.10 0.12 0.11 0.09 0.07 0.07 0.07
0.02 0.00 0.00 0.00 0.00 0.00 0.00 0.00 0.00 0.00 0.00 0.00 0.00 0.00 0.01 0.01 0.01 0.01 0.01 0.02 0.01 0.00 0.01 0.01 0.00 0.00 0.00 0.00 nan 0.00 0.00 0.00 0.00 0.00 0.00 0.01 0.03 0.04 0.05 nan 0.10 0.10 0.08 0.04
0.00 0.00 0.00 0.00 0.00 0.00 0.00 0.00 0.00 0.00 0.00 0.00 0.00 0.00 0.00 0.00 0.01 0.02 0.04 0.10 0.01 0.02 0.01 nan 0.04 0.04 0.00 0.00 0.00 0.00 0.00 0.00 0.00 0.00 0.01 0.01 0.01 0.04 0.06 0.06 0.10 0.10 0.11 0.11
0.04 0.03 0.03 0.02 0.01 0.01 0.00 0.00 0.00 0.00 0.00 0.01 0.02 0.02 0.02 0.02 0.01 0.02 0.01 0.03 0.06 nan 0.10 0.11 0.10 nan 0.03 nan 0.05 0.01 0.01 0.00 0.00 0.02 0.05 0.05 0.07 0.16 0.23 0.24 0.35 0.24 0.31 0.35
0.18 0.05 0.04 0.04 0.06 0.04 0.02 0.02 0.02 0.02 0.03 0.02 0.02 0.01 0.02 0.01 0.02 0.03 0.01 0.01 0.06 nan 0.06 0.07 nan nan nan 0.07 0.09 0.08 0.09 0.11 0.10 0.09 0.14 0.25 0.29 0.40 0.45 0.47 0.42 0.43 0.48 0.42
0.03 0.02 0.02 0.01 0.01 0.03 0.07 0.03 0.05 0.04 0.02 0.03 0.04 0.04 0.05 0.11 0.09 0.07 0.04 nan nan 0.05 0.04 0.06 nan nan nan 0.08 0.10 0.11 0.13 0.15 0.24 0.30 0.25 nan 0.49 0.49 0.49 0.47 0.65 0.41 0.46 0.48
0.04 0.04 0.06 0.07 0.04 0.02 0.02 0.02 0.03 0.03 0.05 0.05 0.04 0.03 0.03 0.08 0.10 0.06 0.11 0.10 nan 0.11 0.11 nan nan nan 0.08 0.09 0.14 0.18 0.20 0.32 0.59 0.41 0.35 0.60 0.66 0.70 0.56 0.66 0.69 0.67 0.85 0.73
0.00 0.00 0.00 0.00 0.00 0.00 0.00 0.00 0.00 0.00 0.00 0.00 0.00 0.00 0.04 0.04 0.03 0.05 0.06 0.08 0.08 nan 0.12 0.13 0.14 0.12 0.14 0.15 0.16 0.16 0.19 0.24 0.30 0.28 0.47 0.61 0.72 0.85 0.88 0.79 0.74 0.72 0.66 0.76
0.06 nan 0.06 0.00 0.00 0.00 0.00 0.00 0.01 0.00 0.00 0.00 0.00 0.00 0.00 0.01 0.03 0.04 nan 0.01 0.03 0.07 0.09 0.10 0.13 nan 0.19 0.18 0.21 0.22 0.28 0.31 nan 0.64 0.70 1.00 1.02 1.10 0.84 0.78 0.91 0.71 0.76 0.67
SL_Ratio
nan nan nan nan nan nan 3.3 nan 3.5 0.0 0.0 nan nan nan nan nan nan nan nan nan nan nan nan nan nan nan nan nan nan nan nan nan nan nan nan nan nan nan nan nan nan nan nan nan
2.5 nan nan nan nan nan nan nan nan nan nan nan nan nan nan nan nan nan nan nan nan nan nan nan nan nan nan nan nan nan nan nan nan nan nan nan nan nan nan nan nan nan nan nan
2.8 nan nan 3.0 nan 0.0 5.0 nan nan 2.5 nan nan nan nan nan nan nan nan nan nan nan nan nan nan nan nan nan nan nan nan nan nan nan nan nan nan nan nan nan nan nan nan nan nan
2.6 nan 3.7 2.5 nan nan nan nan nan nan nan nan nan nan nan nan nan nan nan nan nan nan nan nan nan nan nan nan nan nan nan nan nan nan nan nan nan nan nan nan nan nan nan nan
2.8 3.3 nan nan nan nan 6.7 5.0 nan nan nan nan nan nan nan nan nan nan nan nan nan nan nan nan nan nan nan nan nan nan nan nan nan nan nan nan nan nan nan nan nan nan nan nan
2.5 3.5 3.4 nan nan nan nan 3.0 nan nan nan nan nan nan nan nan nan nan nan nan nan nan nan nan nan nan nan nan nan nan nan nan nan nan nan nan nan nan nan nan nan nan nan nan
3.2 3.8 2.7 nan nan nan 4.3 4.4 nan nan nan nan nan nan nan nan nan nan nan nan nan nan nan nan nan nan nan nan nan nan nan nan nan nan nan nan nan nan nan nan nan nan nan nan
3.4 3.7 5.9 nan nan 5.3 5.0 nan nan nan nan nan nan nan nan nan nan nan nan nan nan nan nan nan nan nan nan nan nan nan nan nan nan nan nan nan nan nan nan nan nan nan nan nan
nan 3.6 nan nan nan nan nan nan nan nan nan nan nan nan nan nan nan nan nan nan nan nan nan nan nan nan nan nan nan nan nan nan nan nan nan nan nan nan nan nan nan nan nan nan
5.9 5.0 nan nan nan nan nan nan nan nan nan nan nan nan nan nan nan nan nan nan nan nan nan nan nan nan nan nan nan nan nan nan nan nan nan nan nan nan nan nan nan nan nan nan
6.2 6.0 nan nan nan nan nan nan nan nan nan nan nan nan nan nan nan nan nan nan nan nan nan nan nan nan nan nan nan nan nan nan nan nan nan nan nan nan nan nan nan nan nan nan
6.3 10.0 5.3 5.6 nan nan nan nan nan nan nan nan nan nan nan nan nan nan nan nan nan nan nan nan nan nan nan nan nan nan nan nan nan nan nan nan nan nan nan nan nan nan nan nan
5.6 nan nan 5.6 5.4 nan 6.0 5.0 nan nan nan 10.0 nan nan nan nan nan nan nan nan nan nan nan nan nan nan nan nan nan nan nan nan nan nan nan nan nan nan 3.3 nan nan nan nan nan
5.2 5.8 5.7 5.6 5.4 5.0 nan nan nan nan nan 5.0 6.7 6.0 10.0 6.0 0.0 nan nan nan nan nan nan nan nan nan nan nan nan 2.5 3.8 nan 0.0 nan nan nan 3.3 5.0 nan 6.7 5.0 4.0 nan nan
6.3 6.2 6.3 6.4 6.4 6.5 6.3 6.2 6.2 6.2 6.0 6.1 nan 7.5 6.0 6.7 5.0 5.0 nan nan nan nan nan nan nan nan nan nan nan 3.6 5.0 5.0 nan nan 6.7 4.4 3.3 4.3 6.7 4.0 6.0 5.7 5.3 4.3
6.1 6.2 6.5 7.0 6.9 6.8 6.7 6.5 6.8 6.5 6.2 6.6 7.5 0.0 nan nan nan nan nan nan 5.7 4.3 4.3 4.1 5.0 0.0 nan nan nan nan nan nan 4.7 4.6 5.0 5.5 5.0 3.4 3.8 3.2 3.5 5.5 6.4 6.0
6.9 8.1 7.3 7.7 7.5 7.1 7.1 6.7 6.7 6.7 nan nan nan nan nan nan 0.0 4.6 4.9 4.7 4.5 4.7 5.0 5.0 4.7 5.0 nan nan 3.3 5.0 4.4 5.0 nan 5.0 5.1 4.6 4.9 3.9 3.3 3.2 3.5 3.4 3.4 3.5
6.4 6.6 5.6 5.7 5.6 nan nan nan nan nan nan nan nan 4.0 4.8 4.8 5.6 5.4 5.2 5.0 5.1 4.9 4.7 4.5 4.1 10.0 nan nan 4.4 5.0 4.8 5.2 5.3 5.5 5.1 5.2 5.1 4.9 5.3 5.2 5.3 5.2 5.7 5.1
5.0 5.5 5.5 nan nan nan nan nan nan nan nan nan 2.9 4.2 4.0 3.0 4.3 4.3 4.9 5.2 5.1 4.8 4.7 4.5 nan nan nan nan 4.9 4.8 5.2 5.9 6.4 6.5 6.2 nan 3.9 4.4 4.2 4.2 4.3 4.2 4.4 4.1
5.5 5.0 nan nan nan nan nan nan nan nan nan nan nan 0.0 5.7 5.2 5.5 5.6 3.3 2.5 4.3 4.2 3.9 3.1 2.9 5.0 2.9 2.5 nan nan 5.0 6.3 6.7 5.0 5.7 3.2 3.1 3.1 3.3 nan 2.8 3.2 3.2 2.9
2.5 1.7 nan nan nan nan nan nan nan nan nan nan nan 6.7 nan nan 3.1 3.3 3.5 3.1 3.3 2.8 2.3 nan 2.5 2.5 5.0 nan nan nan nan nan 6.7 nan 2.9 2.9 3.0 2.6 3.0 3.4 3.7 3.7 3.9 3.6
2.9 2.9 2.9 2.7 3.0 3.0 2.5 nan 0.0 3.0 3.6 3.9 3.7 3.8 3.8 3.8 3.3 3.2 2.9 2.7 2.5 nan 2.5 2.5 2.5 nan 2.5 nan 2.5 2.6 2.4 2.2 2.2 2.4 2.8 2.8 3.0 3.5 3.4 3.3 3.6 3.5 3.8 3.8
3.1 3.0 2.9 3.1 3.5 3.3 3.1 3.0 3.3 3.3 3.5 3.3 3.4 3.3 3.1 2.4 2.8 3.3 3.5 3.0 2.6 nan 2.5 2.6 nan nan nan 2.5 2.5 2.6 2.8 2.8 2.8 2.6 2.6 2.8 3.0 3.2 3.4 3.7 3.7 3.8 3.9 4.0
3.0 3.1 3.0 2.7 3.0 3.9 4.3 3.3 3.7 3.3 3.6 4.1 3.9 3.8 4.0 3.8 3.3 3.0 2.9 nan nan 2.5 2.6 2.6 nan nan nan 2.5 2.8 2.7 2.6 2.6 2.7 2.7 2.8 nan 3.1 3.3 3.4 3.6 4.0 3.8 4.1 4.1
3.5 3.6 4.0 4.4 4.4 3.6 3.8 3.5 4.4 4.5 2.9 3.6 3.7 3.4 3.7 3.3 3.5 3.0 3.4 3.3 nan 2.9 3.1 nan nan nan 2.5 2.6 2.7 2.8 2.7 2.8 3.0 3.1 3.2 3.3 3.4 3.6 3.8 4.2 4.5 4.6 4.8 4.8
nan nan nan nan nan nan nan nan nan nan nan nan nan 2.0 2.6 3.1 3.5 3.2 3.3 3.3 3.6 nan 3.2 3.2 3.3 3.0 2.9 2.9 2.9 2.9 3.2 3.4 3.1 3.1 3.4 3.8 3.9 4.4 5.5 5.5 5.7 5.6 5.5 5.8
4.0 nan 3.6 nan nan nan nan 6.7 6.3 7.5 10.0 10.0 10.0 nan 2.5 2.2 3.0 2.9 nan 3.3 3.4 3.6 3.7 3.5 3.3 nan 3.4 3.5 3.8 3.8 4.1 4.0 nan 4.9 4.8 5.2 5.7 6.0 6.3 6.6 6.8 7.4 7.4 7.5